Theta_e
310 310 310 310 310 310 311 311 311 311 312 312 312 312 312 311 311 309 310 310 310 309 309 309 309 308 308 308 308 309 309 310 310 310 309 308 307 306 306 306 305 306 306
309 309 309 310 310 311 311 310 311 311 311 312 312 312 312 311 311 310 309 309 309 309 309 309 309 308 307 307 308 308 309 309 310 309 308 308 306 305 305 305 305 304 304
309 309 310 310 310 310 311 310 310 310 310 311 311 311 311 310 310 309 309 309 310 309 309 309 309 308 307 307 306 308 307 308 309 310 308 307 306 305 305 303 304 305 304
309 309 310 310 310 309 310 309 309 309 310 310 310 310 310 309 308 307 308 308 309 309 309 308 308 307 306 306 305 306 307 308 309 309 308 307 306 305 305 304 304 303 303
308 309 309 309 308 308 309 309 309 309 309 309 309 309 308 308 306 305 304 306 308 308 308 308 307 306 306 305 304 305 307 308 309 308 307 307 306 306 305 304 304 303 303
307 307 308 308 308 309 309 309 308 307 308 308 307 307 308 306 305 305 303 302 306 308 307 306 307 306 306 306 305 306 307 308 309 308 307 307 307 306 305 305 305 304 301
306 306 307 307 308 308 307 307 306 307 306 306 305 304 304 303 303 303 302 302 305 307 307 305 306 306 306 307 307 308 308 310 309 309 308 308 308 307 306 305 304 303 301
307 307 307 307 307 306 305 305 304 305 304 304 303 303 303 303 302 303 302 303 306 306 306 305 305 306 307 308 308 308 309 310 310 309 309 309 308 307 306 305 305 303 302
307 307 307 306 305 305 305 305 303 302 302 304 302 302 302 302 303 303 304 306 307 306 305 306 307 308 308 309 309 310 311 310 309 309 309 309 308 308 307 306 304 299 297
307 307 306 306 305 302 303 302 302 302 301 301 301 301 301 301 301 301 303 304 304 304 306 306 307 309 309 309 310 310 310 309 309 309 309 308 308 308 308 307 306 305 306
307 306 305 303 302 302 302 301 301 300 300 301 301 301 302 301 303 303 303 304 305 305 306 307 308 308 309 309 310 310 310 309 309 309 309 308 308 307 308 307 307 306 307
306 306 303 303 302 301 301 301 300 300 301 301 302 302 304 303 303 304 304 305 306 306 306 307 308 308 308 309 309 309 308 308 309 308 306 307 305 303 299 301 305 305 304
305 304 302 302 302 302 302 301 301 301 301 302 303 303 304 304 305 305 306 306 307 307 307 307 308 308 307 308 308 308 308 308 308 307 302 299 298 298 298 300 299 299 298
303 302 303 302 302 302 302 301 302 302 303 303 303 304 305 306 306 306 306 306 307 307 307 307 307 307 307 308 308 308 307 307 307 307 304 301 304 306 305 304 305 304 306
303 302 303 302 303 303 302 302 302 303 304 304 305 305 306 306 306 306 307 307 307 307 307 307 308 308 308 308 304 305 305 305 303 303 306 306 306 307 308 308 308 308 307
303 303 303 303 304 304 304 304 304 304 305 305 305 305 306 306 307 307 308 308 308 308 307 307 306 306 306 304 305 307 307 307 307 307 307 307 307 308 308 309 309 309 308
304 305 304 304 304 305 305 305 305 305 305 306 307 307 307 307 307 307 308 308 305 305 306 307 308 308 308 308 309 309 309 309 309 309 310 309 310 310 310 309 309 309 309
305 306 305 305 305 305 306 306 306 306 307 307 308 308 308 308 308 306 306 306 309 310 310 310 310 310 310 311 311 311 311 311 311 311 311 310 310 310 310 309 309 310 309
306 306 306 306 307 307 307 307 307 308 308 308 306 305 305 305 308 310 311 311 310 310 310 310 311 311 311 311 312 312 312 311 312 311 311 310 310 311 311 310 310 311 310
307 307 307 308 308 308 308 308 308 309 309 310 311 310 310 311 311 311 310 310 310 310 311 311 311 311 311 311 311 311 311 311 311 310 311 311 311 311 312 311 311 311 311
308 308 309 309 309 309 309 308 310 311 310 310 310 310 310 310 310 310 310 310 310 309 310 310 310 310 310 310 311 310 310 309 310 309 308 308 310 310 311 311 311 311 310
309 309 310 310 309 309 310 311 311 310 310 310 310 310 310 310 310 310 310 310 309 309 308 308 308 307 306 305 305 307 308 308 306 306 306 306 308 308 309 309 309 307 305
310 311 311 310 309 309 310 310 310 310 310 310 309 309 309 308 308 308 308 307 307 306 305 304 303 303 303 302 301 301 302 305 305 305 305 305 305 306 306 306 305 305 305
311 312 311 310 310 308 308 309 309 309 309 308 306 306 305 305 304 304 304 304 304 304 304 303 302 301 300 300 300 300 300 302 303 304 304 305 304 304 304 304 304 304 304
311 312 311 310 309 309 310 310 309 307 305 305 305 304 304 304 304 304 304 304 304 303 302 301 301 301 300 300 300 300 300 301 303 304 305 304 304 305 304 304 304 304 304
311 311 309 309 308 310 310 309 306 304 304 304 304 304 304 303 303 303 303 303 303 302 302 301 299 299 299 299 299 299 300 301 302 303 304 304 304 303 304 304 304 304 304
Wind_Speed
11 11 12 11 9 10 11 12 14 14 14 15 14 14 12 10 9 9 10 9 9 11 11 12 11 15 16 16 15 15 14 14 18 17 9 7 10 13 13 9 7 11 17
12 13 12 10 11 11 12 13 14 14 14 14 12 11 8 6 6 7 9 11 13 13 12 11 11 13 20 16 15 14 12 12 15 19 6 4 9 11 10 9 9 9 13
14 13 12 12 12 13 13 13 13 13 15 13 10 7 5 5 5 7 9 11 12 13 11 10 12 14 18 17 14 14 13 12 16 9 6 5 11 10 10 8 7 7 8
16 16 11 12 12 13 13 11 12 12 13 13 11 8 7 6 4 7 9 11 14 10 9 10 12 15 18 17 14 10 11 14 8 6 3 4 8 9 12 10 9 10 10
17 15 15 15 15 15 11 11 11 12 12 13 12 10 9 6 6 14 13 12 13 9 10 10 12 14 19 23 15 10 8 10 3 2 2 5 6 6 8 8 13 12 12
16 18 18 18 18 14 12 11 11 12 13 13 12 9 8 8 13 13 14 13 12 10 10 11 11 11 15 15 11 9 8 4 3 1 8 9 9 9 11 8 4 4 10
18 18 19 18 16 12 12 10 12 13 14 11 11 12 11 13 16 16 14 12 12 8 8 14 11 10 11 10 7 6 5 5 4 4 5 7 6 10 11 9 11 12 17
17 17 15 14 13 12 13 14 13 14 13 11 14 15 13 11 13 11 4 4 6 7 7 10 12 7 7 5 4 4 4 6 9 9 4 5 7 7 12 11 10 14 16
14 14 14 12 14 15 14 14 14 15 14 13 12 12 9 10 9 7 8 7 6 7 8 10 7 6 6 6 5 8 10 11 11 8 7 7 7 7 8 8 10 12 12
14 13 13 13 14 18 15 15 16 14 11 9 7 8 9 9 9 7 3 5 4 3 5 7 7 9 9 8 10 11 12 12 10 9 8 6 6 6 5 6 7 12 12
12 11 14 16 14 13 14 13 15 11 7 7 9 12 12 12 11 10 8 7 8 9 11 14 17 16 14 14 13 13 13 10 8 6 5 7 8 9 9 9 12 15 11
14 15 14 15 15 13 12 14 13 13 14 13 13 12 11 9 12 12 12 11 12 13 17 19 19 19 16 14 14 13 12 11 8 10 6 9 12 16 17 16 14 6 7
12 11 13 12 13 12 13 14 14 15 15 12 12 10 12 13 14 15 17 18 18 18 18 18 15 15 15 15 13 8 6 5 6 10 16 21 23 21 19 18 20 19 18
11 11 12 15 16 18 16 17 16 15 15 14 13 15 17 18 17 17 19 18 15 15 15 15 16 15 15 17 18 19 19 17 20 24 24 21 18 15 12 12 13 14 15
16 16 13 13 16 22 23 21 21 20 19 18 19 19 19 19 19 16 14 13 12 12 12 14 16 18 21 25 23 24 28 25 24 21 18 14 12 11 11 11 10 10 11
15 16 16 17 18 17 21 23 23 21 19 18 17 17 16 16 16 15 15 16 19 25 33 37 36 35 30 23 24 25 19 15 13 12 12 12 12 10 11 11 11 11 11
17 16 15 15 13 14 13 15 15 17 18 18 18 18 18 19 19 21 24 31 30 27 26 24 21 19 18 17 17 17 16 12 13 14 13 12 11 11 11 10 10 11 12
15 17 16 14 13 12 13 15 19 21 27 31 27 24 26 27 29 35 36 28 23 22 20 20 22 23 22 20 18 18 16 15 14 13 13 11 11 12 9 11 11 8 8
18 17 17 18 19 19 22 25 27 29 33 38 42 39 32 31 31 30 25 22 26 25 23 21 21 20 20 18 16 15 15 14 14 14 14 13 11 8 7 8 9 10 11
15 16 18 21 23 23 24 26 30 26 22 20 19 17 17 18 21 25 24 22 21 20 18 19 19 19 18 17 17 14 14 17 17 14 11 11 11 10 10 11 11 10 9
17 21 24 26 27 26 23 20 22 21 22 25 25 25 24 23 23 22 21 22 23 24 21 18 17 17 17 16 16 16 15 14 14 15 13 12 11 11 10 10 10 10 11
19 27 26 24 22 21 22 16 16 20 20 20 21 21 21 19 19 18 18 17 18 17 17 17 16 17 17 17 15 15 14 16 16 15 15 14 12 12 12 12 13 12 12
18 15 16 18 18 17 14 16 19 19 20 19 18 17 17 17 16 17 17 17 17 17 18 20 19 18 18 18 19 18 15 13 16 17 15 14 14 13 13 13 12 13 12
11 14 14 14 12 14 18 17 19 18 16 16 16 16 17 17 18 18 17 17 18 18 17 18 20 21 20 20 19 19 18 17 16 16 14 14 14 14 13 13 13 13 13
11 12 12 9 16 20 15 14 14 15 16 16 17 17 17 17 17 17 17 17 17 17 18 18 17 18 18 18 18 18 16 14 14 15 15 14 13 13 13 13 13 13 14
11 10 13 16 13 12 13 12 13 14 14 14 14 15 15 16 16 16 16 15 15 16 15 16 16 16 15 16 16 15 14 13 13 16 16 13 13 14 13 14 14 13 14
Wind_Direction
321 317 311 311 315 312 311 310 304 296 292 293 292 292 301 297 298 305 317 314 304 313 317 324 331 332 333 332 324 321 312 309 314 328 293 336 350 355 353 1 25 49 48
321 314 314 308 315 311 310 309 310 312 311 308 305 299 300 302 307 326 318 315 306 299 300 314 317 324 329 335 327 321 316 313 315 319 251 345 9 4 1 10 26 51 60
326 315 313 318 319 321 324 327 335 335 331 327 326 317 313 316 332 328 328 318 315 299 293 310 317 322 319 328 329 318 312 328 318 297 246 24 2 16 17 16 19 43 68
328 326 325 309 320 323 327 336 329 328 326 330 329 323 325 325 317 326 325 321 318 306 297 309 317 310 322 327 330 324 333 330 341 348 129 30 21 26 26 36 44 59 67
333 330 330 319 319 314 317 320 328 338 344 344 338 332 322 330 281 302 306 319 318 316 320 318 318 321 319 326 326 325 325 315 30 355 77 17 24 8 4 28 47 52 71
333 329 328 319 316 318 318 326 330 336 337 345 338 332 350 322 296 294 299 308 317 310 319 325 320 330 315 322 329 339 345 351 93 111 95 59 19 22 25 22 350 351 69
331 333 327 328 335 330 322 339 345 346 343 329 325 321 320 308 302 306 289 292 310 302 323 330 333 315 313 320 336 352 355 40 71 109 98 41 25 35 29 58 85 90 92
333 335 338 344 355 349 336 342 344 337 328 329 327 330 329 341 335 337 313 322 327 346 351 317 322 332 334 355 25 33 82 75 103 121 112 40 49 55 59 78 74 91 96
340 343 346 358 355 355 354 350 338 338 327 326 333 353 17 355 12 22 37 30 34 4 323 326 355 357 35 85 72 95 103 97 115 103 77 62 50 53 51 52 79 97 85
354 357 3 1 352 343 347 339 334 337 340 340 19 22 23 39 15 11 347 21 8 339 11 31 55 76 77 85 82 94 97 96 103 96 83 51 36 18 28 77 95 96 76
354 6 2 353 354 337 345 357 357 1 21 37 55 53 46 37 20 30 41 58 76 68 62 71 76 73 75 77 86 86 82 85 89 87 78 44 39 56 79 83 85 66 43
356 354 358 354 360 21 28 19 30 51 60 61 46 44 30 13 26 54 63 70 78 75 78 79 81 75 76 83 89 86 78 59 63 74 68 86 81 71 86 78 69 89 107
4 355 0 30 44 32 27 35 46 63 65 48 43 33 46 46 60 65 69 71 73 77 76 71 74 67 57 68 65 73 99 116 98 97 92 93 85 73 72 68 64 61 69
23 35 45 59 47 36 52 55 59 60 63 53 57 60 64 66 68 74 73 67 61 63 66 67 62 54 68 67 72 75 81 88 96 91 90 82 61 54 63 57 57 52 59
51 61 45 56 62 59 64 71 67 65 61 63 65 64 65 60 55 55 58 72 79 78 76 79 79 80 79 83 77 79 76 78 80 66 50 53 59 57 53 55 64 66 64
63 51 61 68 71 63 64 63 61 59 56 56 57 64 56 58 56 58 65 75 81 90 91 81 74 72 79 74 58 54 63 65 57 54 52 55 55 56 56 57 55 54 55
57 58 71 73 65 64 49 51 51 52 57 57 61 65 67 71 75 75 82 89 84 79 77 70 68 69 67 67 65 64 60 59 61 59 55 53 55 52 54 51 42 43 48
59 66 70 76 75 62 69 72 79 75 72 65 65 69 76 78 83 86 83 78 63 56 63 67 69 68 64 60 57 55 53 59 52 52 48 45 51 46 39 53 44 38 26
67 60 70 79 82 82 82 83 81 80 74 77 80 82 79 80 75 67 73 66 68 67 66 66 66 63 58 54 56 53 52 52 56 50 47 44 47 41 31 11 27 24 344
67 76 80 84 88 88 90 87 75 72 68 60 56 68 71 61 68 73 74 64 60 57 57 52 50 55 49 47 47 46 43 37 39 38 33 18 15 23 21 11 25 12 14
74 85 84 84 88 91 88 71 70 69 73 70 69 73 76 75 70 64 57 54 50 48 48 48 47 42 40 34 37 35 34 27 23 21 18 13 11 14 11 10 17 19 11
91 90 69 64 77 80 70 70 64 73 72 72 70 70 71 69 66 61 57 54 51 47 43 42 41 39 35 32 31 31 34 30 24 23 22 23 24 22 18 19 20 18 18
87 59 52 60 66 67 70 67 73 71 69 66 66 65 63 61 59 55 52 50 49 47 43 44 44 42 42 38 33 33 37 41 26 27 27 29 29 30 28 27 26 25 21
78 79 71 74 85 87 79 70 67 68 64 63 62 62 61 60 58 55 55 51 49 48 49 46 41 41 46 45 45 42 44 50 55 44 27 30 30 31 29 28 26 25 22
86 73 75 82 105 84 61 65 64 64 64 65 64 63 62 59 58 56 53 51 51 47 44 43 45 40 42 42 41 41 42 50 58 49 39 25 27 27 25 23 20 17 16
77 73 96 106 95 69 62 64 66 65 65 67 65 64 60 58 56 53 50 48 45 42 41 33 30 29 27 26 24 22 27 38 50 48 33 22 24 17 23 15 13 11 8